Regional Weather Roundup
Issued by NWS Sterling, VA

Home | Current Version | Previous Version | Text Only | Print | Product List | Glossary Off
Versions: 1 2 3 4 5 6 7 8 9 10 11 12 13 14 15 16 17 18 19 20 21 22 23 24 25 26 27 28 29 30 31 32 33 34 35 36 37 38 39 40 41 42 43 44 45 46 47 48 49 50

000
ASUS41 KLWX 030610
RWRLWX

REGIONAL WEATHER ROUNDUP
NATIONAL WEATHER SERVICE BALTIMORE MD/WASHINGTON DC
200 AM EDT MON AUG 03 2015

Note: "FAIR" indicates few or no clouds below 12,000 feet
with no significant weather and/or obstructions to visibility.
 TC=TEMPERATURE CELSIUS

 * =Non NWS site. Station does not report precipitation (e.g. rain,
    snow, etc.), thunder, or fog.

DCZ001-MDZ009-015-VAZ040>042-051-053>054-030700-
WASHINGTON METRO

CITY           SKY/WX    TMP DP  RH WIND       PRES   REMARKS
WASHINGTON NAT CLEAR     74  66  76 SW3       29.89F
DULLES         PTCLDY    68  62  81 S6        29.89F
ANDREWS AFB    CLEAR     70  64  81 S6        29.88F
LEESBURG*      CLEAR     68  64  88 SW3       29.90S
MANASSAS*      CLEAR     64  64 100 CALM      29.90F
GAITHERSBURG*  CLEAR     70  59  68 CALM      29.93F

$$

MDZ006>007-011-014-030700-
BALTIMORE METRO

CITY           SKY/WX    TMP DP  RH WIND       PRES   REMARKS
BWI AIRPORT    PTCLDY    70  61  73 SW3       29.87F
MD SCIENCE CTR   N/A     75  60  59 MISG      29.88F
MARTIN STATE   CLEAR     75  64  69 S5        29.89S
ANNAPOLIS      CLEAR     73  61  65 CALM      29.87F
FORT MEADE*    CLEAR     63  61  94 CALM      29.90F

$$

MDZ012-015-019>023-030700-
MARYLAND EASTERN SHORE

CITY           SKY/WX    TMP DP  RH WIND       PRES   REMARKS
OCEAN CITY     FOG       67  66  97 CALM      29.89F VSB 1/4
SALISBURY      CLEAR     70  69  97 CALM      29.90F FOG
BAY BRIDGE AP*   N/A     75  63  64 S5        29.88F
CAMBRIDGE*     CLEAR     64  61  88 CALM      29.89S
EASTON*        CLEAR     71  67  87 CALM      29.93S

$$

MDZ017>025-030700-
SOUTHERN MARYLAND

CITY           SKY/WX    TMP DP  RH WIND       PRES   REMARKS
PATUXENT RIVER CLEAR     70  65  84 SW6       29.90S
ST INIGOES     CLEAR     66  64  93 CALM      29.89F
LEONARDTOWN*   CLEAR     68  63  83 CALM      29.92S

$$

MDZ003>005-030700-
NORTH CENTRAL MARYLAND

CITY           SKY/WX    TMP DP  RH WIND       PRES   REMARKS
FREDERICK*     CLEAR     66  63  88 CALM      29.91S
HAGERSTOWN APT CLEAR     71  60  68 S7        29.88S
WESTMINSTER*   CLEAR     72  61  68 CALM      29.89F

$$

MDZ501>502-030700-
WESTERN MARYLAND

CITY           SKY/WX    TMP DP  RH WIND       PRES   REMARKS
OAKLAND*       CLEAR     61 N/A N/A SW8       29.99F
CUMBERLAND*    CLEAR     64  61  88 CALM      29.93S

$$

VAZ025>031-030700-
SHENANDOAH VALLEY

CITY           SKY/WX    TMP DP  RH WIND       PRES   REMARKS
WINCHESTER*    CLEAR     72  59  64 SW6       29.90S
FRONT ROYAL*   FAIR      66  61  82 S5        29.90S
LURAY*         FAIR      64  64 100 CALM      29.93S
NEW MARKET*    FAIR      62  59  89 CALM      29.93S
STAUNTON*      PTCLDY    65  60  85 CALM      29.97S
WAYNESBORO*    FAIR      63  57  82 CALM      29.96F

$$

WVZ021-048>050-054>055-030700-
EASTERN WEST VIRGINIA PANHANDLE

CITY           SKY/WX    TMP DP  RH WIND       PRES   REMARKS
MARTINSBURG    CLEAR     66  60  81 SW6       29.89S
PETERSBURG*    CLEAR    N/A N/A N/A CALM      29.93F

$$

VAZ036>039-050-030700-
CENTRAL FOOTHILLS

CITY           SKY/WX    TMP DP  RH WIND       PRES   REMARKS
CHARLOTTESVILL PTCLDY    67  63  87 W6        29.92F
CULPEPER*      CLEAR     63  62  98 CALM      29.91F
ORANGE*        PTCLDY    64  63  94 CALM      29.93S
GORDONSVILLE*  FAIR      63  61  94 CALM      29.92S
WARRENTON*     FAIR      62  62 100 CALM      29.90F

$$

VAZ055>057-030700-
NORTH AND CENTRAL PIEDMONT

CITY           SKY/WX    TMP DP  RH WIND       PRES   REMARKS
FREDERICKSBRG* CLEAR     68  68  99 SE3       29.90F
STAFFORD*      CLEAR     61  60  96 CALM      29.94F

$$

NCZ024-NYZ072-PAZ021-071-VAZ022-071-030700-
OTHER REGIONAL OBSERVATIONS

CITY           SKY/WX    TMP DP  RH WIND       PRES   REMARKS
NEW YORK CITY  CLEAR     78  57  48 SW5       29.89F
PHILADELPHIA   CLEAR     75  64  68 S7        29.88F
PITTSBURGH     PTCLDY    73  59  61 SW10      29.84F
ROANOKE        MOCLDY    65  59  81 S3        29.99F
RICHMOND       PTCLDY    70  63  78 CALM      29.92F
RALEIGH        PTCLDY    71  62  73 CALM      29.93F

$$

ANZ530>537-030700-
MARINE OBSERVATIONS

STATION/POSITION TIME  TEMP    WIND        PRES
                       AIR SEA DIR/SP/G
                 (UTC) (F)     (DEG/KT/KT) (MB)
THOMAS PT LIGHT  NOT AVBL
BALT KEY BRIDGE  0500   75     190/  7/  9 1011.9R
COVE POINT       0500   77     230/  8/ 10 1013.2F
LEWISETTA        0500   76 84  250/  5/  5 1012.3F
SOLOMONS ISLAND  0500      83                N/A
PINEY POINT      0500          230/  9/ 10   N/A

$$




USA.gov is the U.S. government's official web portal to all federal, state and local government web resources and services.